239  
NZUS01 KOTX 230757  
RWROTX  
 
EASTERN WASHINGTON/NORTHERN IDAHO ROUNDUP  
NATIONAL WEATHER SERVICE, SPOKANE WA  
1200 AM PST WED JAN 23 2019  
 
NOTE: "FAIR" INDICATED FEW OR NO CLOUDS BELOW 12,000 FEET WITH NO  
SIGNIFICANT WEATHER AND/OR S TO VISIBILITY
.  
   
..NORTHEAST WASHINGTON AND NORTHERN IDAHO PANHANDLE
 
 
 
CITY SKY/WX TMP DP RH WIND PRES REMARKS
 
SPOKANE INTL LGT SNOW 32 29 88 S10 30.05F VSB 1 WCI 24  
SPOKANE DOWNTO LGT SNOW 34 32 92 SE7 30.08F VSB 1 WCI 28  
DEER PARK SNOW 32 31 96 CALM 30.08S VSB 1/2  
   
..SOUTHEAST WASHINGTON AND SOUTHERN IDAHO PANHANDLE
 
 
 
CITY SKY/WX TMP DP RH WIND PRES REMARKS
 
WALLA WALLA LGT RAIN 49 36 61 S21 30.13S  
PULLMAN/MOSCOW LGT SNOW 32 30 92 SE15 30.11F VSB 1 WCI 22  
LOWELL N/A 33 31 92 VRB5 30.24F WCI 29  
   
..COLUMBIA BASIN
 
 
 
CITY SKY/WX TMP DP RH WIND PRES REMARKS
 
EPHRATA FOG 33 33 100 N5 30.03F VSB 1/4 WCI 29  
MOSES LAKE LGT RAIN 37 35 92 S7 30.03F  
PASCO CLOUDY 46 40 79 S5 30.13S  
HERMISTON CLOUDY 43 39 86 W5 30.12S  
PENDLETON CLOUDY 45 35 68 SW14 30.13F  
   
..EAST SLOPES CASCADES
 
 
 
CITY SKY/WX TMP DP RH WIND PRES REMARKS
 
THE DALLES MOCLDY 36 35 96 S3 30.15F FOG  
YAKIMA PTCLDY 32 29 88 W6 30.05F WCI 26  
ELLENSBURG CLOUDY 34 32 92 W5 30.02F WCI 30  
WENATCHEE FOG 30 28 93 SW5 30.03F VSB 1/4 WCI 25  
OMAK LGT SNOW 32 32 100 CALM 30.06F FOG  
SUNNYSIDE CLOUDY 42 39 87 SE10 30.08F  
   
..SOUTHERN BRITISH COLUMBIA
 
 
 
CITY SKY/WX TMP DP RH WIND PRES REMARKS
 
   
..WESTERN MONTANA
 
 
 
CITY SKY/WX TMP DP RH WIND PRES REMARKS
 
KALISPELL LGT SNOW 28 27 93 SW3 30.09F VSB 3/4  
MISSOULA CLOUDY 26 22 84 CALM 30.12F  
   
..NEIGHBORING CITIES
 
 
 
CITY SKY/WX TMP DP RH WIND PRES REMARKS
 
SEATTLE LGT RAIN 49 46 90 S20G36 29.98F FOG  
PORTLAND CLOUDY 50 47 89 S20G25 30.22F  
BOISE CLOUDY 34 20 56 VRB3 30.34F  
GREAT FALLS CLOUDY 29 22 75 SW14 29.95F WCI 18  
 
CLICK HERE TO GO TO PREVIOUS BULLETINS.

The Nexlab WA Page
The Nexlab ID Page Main Text Page